Huntsville, AL

6:35 PM CDT on April 27, 2017 (GMT -0500)
Huntsville International

Weather History for KHSV - May, 2013

Change the Weather History Date:

Saturday, May 4, 2013

  Actual Average Record
Temperature  
Mean Temperature 48 °F 67 °F  
Max Temperature 54 °F 78 °F 90 °F (1930)
Min Temperature 42 °F 56 °F 36 °F (1971)
Degree Days  
Heating Degree Days 17 2  
Month to date heating degree days 22 8  
Since 1 July heating degree days 2993 2982  
Cooling Degree Days 0 4  
Month to date cooling degree days 6 14  
Year to date cooling degree days 65 86  
Moisture  
Dew Point 43 °F    
Average Humidity 83    
Maximum Humidity 100    
Minimum Humidity 66    
Precipitation  
Precipitation 2.11 in 0.17 in 2.11 in (2013)
Month to date precipitation 2.96 0.70  
Year to date precipitation 25.48 19.96  
Snow  
Snow 0.00 in - - ()
Month to date snowfall 0.0  
Since 1 July snowfall 0.7  
Snow Depth 0.00 in    
Sea Level Pressure  
Sea Level Pressure 29.95 in    
Wind  
Wind Speed 6 mph (NNW)    
Max Wind Speed 12 mph    
Max Gust Speed 16 mph    
Visibility 5 miles    
Events Rain    
T = Trace of Precipitation, MM = Missing Value Source: NWS Daily Summary

Daily Weather History Graph

Daily Weather History Graph

Search for Another Location

Airport or City:

Trip Planner

Search our weather history database for the weather conditions in past years. The results will help you decide how hot, cold, wet, or windy it might be!

Date:

Astronomy

May. 04, 2013 Rise Set
Actual Time 5:53 AM CDT 7:34 PM CDT
Civil Twilight 5:26 AM CDT 8:01 PM CDT
Nautical Twilight 4:53 AM CDT 8:34 PM CDT
Astronomical Twilight 4:19 AM CDT 9:09 PM CDT
Moon 2:38 AM CDT (5/4) 2:43 PM CDT (5/4)
Length of Visible Light 14h 35m
Length of Day
13h 40m
Waning Crescent, 27% of the Moon is Illuminated
May 4
Waning Crescent
May 9
New
May 17
First Quarter
May 24
Full
May 31
Last Quarter

Hourly Weather History & Observations

Time (CDT) Temp. Windchill Dew Point Humidity Pressure Visibility Wind Dir Wind Speed Gust Speed Precip Events Conditions
12:08 AM 46.4 °F 40.7 °F 44.6 °F 93% 29.96 in 4.0 mi NW 12.7 mph 20.7 mph 0.03 in Rain Rain
12:39 AM 44.6 °F 40.7 °F 44.6 °F 100% 29.97 in 1.8 mi Variable 6.9 mph - 0.10 in Rain Heavy Rain
12:46 AM 44.6 °F 39.7 °F 42.8 °F 93% 29.96 in 3.0 mi NW 9.2 mph - 0.12 in Rain Rain
12:53 AM 45.0 °F 42.6 °F 44.1 °F 97% 29.96 in 7.0 mi WNW 4.6 mph - 0.13 in Rain Light Rain
1:33 AM 44.6 °F 41.4 °F 44.6 °F 100% 29.94 in 2.5 mi NW 5.8 mph - N/A Rain Heavy Rain
1:53 AM 45.0 °F 40.1 °F 43.0 °F 93% 29.94 in 4.0 mi WNW 9.2 mph - 0.18 in Rain Rain
2:08 AM 44.6 °F 41.4 °F 42.8 °F 93% 29.93 in 3.0 mi NW 5.8 mph - 0.05 in Rain Rain
2:20 AM 44.6 °F 40.7 °F 42.8 °F 93% 29.92 in 3.0 mi NW 6.9 mph - 0.11 in Rain Heavy Rain
2:49 AM 44.6 °F 41.4 °F 42.8 °F 93% 29.92 in 2.5 mi NW 5.8 mph - 0.20 in Rain Heavy Rain
2:53 AM 44.1 °F 40.1 °F 43.0 °F 96% 29.91 in 2.5 mi NNW 6.9 mph - 0.23 in Rain Heavy Rain
3:03 AM 44.6 °F 41.4 °F 42.8 °F 93% 29.91 in 3.0 mi NNW 5.8 mph - 0.03 in Rain Rain
3:24 AM 44.6 °F 43.1 °F 42.8 °F 93% 29.93 in 1.8 mi WNW 3.5 mph - 0.12 in Rain Heavy Rain
3:53 AM 44.1 °F 42.5 °F 42.1 °F 93% 29.93 in 1.5 mi West 3.5 mph - 0.34 in Rain Heavy Rain
4:03 AM 44.6 °F 42.2 °F 42.8 °F 93% 29.92 in 2.5 mi NW 4.6 mph - 0.04 in Rain Heavy Rain
4:17 AM 42.8 °F 40.1 °F 42.8 °F 100% 29.94 in 2.5 mi WNW 4.6 mph - 0.11 in Rain Heavy Rain
4:53 AM 43.0 °F 38.8 °F 42.1 °F 97% 29.93 in 3.0 mi WNW 6.9 mph - 0.29 in Rain Rain
5:17 AM 44.6 °F 41.4 °F 42.8 °F 93% 29.93 in 8.0 mi NW 5.8 mph - 0.04 in Rain Light Rain
5:32 AM 44.6 °F 42.2 °F 42.8 °F 93% 29.94 in 2.5 mi WNW 4.6 mph - 0.06 in Rain Rain
5:53 AM 44.1 °F 42.5 °F 43.0 °F 96% 29.94 in 2.5 mi NW 3.5 mph - 0.15 in Rain Heavy Rain
6:05 AM 44.6 °F 39.2 °F 42.8 °F 93% 29.94 in 3.0 mi WNW 10.4 mph - 0.04 in Rain Rain
6:16 AM 42.8 °F 38.0 °F 42.8 °F 100% 29.94 in 4.0 mi WNW 8.1 mph - 0.07 in Rain Rain
6:44 AM 42.8 °F 39.3 °F 42.8 °F 100% 29.95 in 5.0 mi WNW 5.8 mph - 0.10 in Rain Rain
6:53 AM 43.0 °F 41.3 °F 42.1 °F 97% 29.96 in 5.0 mi West 3.5 mph - 0.10 in Rain Light Rain
7:13 AM 44.6 °F 43.1 °F 42.8 °F 93% 29.95 in 7.0 mi Variable 3.5 mph - 0.01 in Rain Light Rain
7:21 AM 44.6 °F 41.4 °F 42.8 °F 93% 29.94 in 1.8 mi WNW 5.8 mph - 0.03 in Rain Heavy Rain
7:40 AM 42.8 °F 39.3 °F 41.0 °F 93% 29.96 in 1.8 mi West 5.8 mph - 0.10 in Rain Heavy Rain
7:53 AM 43.0 °F 38.2 °F 39.9 °F 89% 29.95 in 1.8 mi WNW 8.1 mph - 0.16 in Rain Heavy Rain
8:11 AM 42.8 °F 41.1 °F 39.2 °F 87% 29.96 in 2.5 mi NW 3.5 mph - 0.09 in Rain Heavy Rain
8:21 AM 42.8 °F 41.1 °F 41.0 °F 93% 29.98 in 1.8 mi NW 3.5 mph - 0.13 in Rain Heavy Rain
8:41 AM 42.8 °F 40.1 °F 41.0 °F 93% 29.98 in 3.0 mi NNW 4.6 mph - 0.21 in Rain Rain
8:53 AM 43.0 °F 39.5 °F 41.0 °F 93% 29.97 in 2.5 mi NNW 5.8 mph - 0.25 in Rain Heavy Rain
9:03 AM 42.8 °F 41.1 °F 41.0 °F 93% 29.99 in 1.5 mi NW 3.5 mph - 0.06 in Rain Heavy Rain
9:17 AM 42.8 °F 40.1 °F 41.0 °F 93% 30.00 in 2.5 mi Variable 4.6 mph - 0.10 in Rain Rain
9:53 AM 42.1 °F 38.4 °F 39.9 °F 92% 30.00 in 1.5 mi NNW 5.8 mph - 0.25 in Rain Heavy Rain
10:10 AM 42.8 °F 38.0 °F 39.2 °F 87% 30.00 in 3.0 mi NNE 8.1 mph - 0.12 in Rain Rain
10:53 AM 44.1 °F 42.5 °F 39.9 °F 85% 30.01 in 10.0 mi North 3.5 mph - 0.16 in Rain Light Rain
11:53 AM 46.0 °F 44.8 °F 41.0 °F 83% 30.00 in 10.0 mi NNW 3.5 mph - 0.00 in   Overcast
12:53 PM 46.0 °F 44.8 °F 42.1 °F 86% 29.99 in 10.0 mi NNW 3.5 mph - N/A   Overcast
1:53 PM 48.0 °F - 43.0 °F 83% 29.99 in 10.0 mi NNE 3.5 mph - 0.01 in   Overcast
2:53 PM 53.1 °F - 45.0 °F 74% 29.96 in 10.0 mi Variable 3.5 mph - 0.00 in   Overcast
3:53 PM 53.1 °F - 44.1 °F 71% 29.95 in 10.0 mi NE 6.9 mph - N/A   Overcast
4:53 PM 54.0 °F - 45.0 °F 72% 29.94 in 10.0 mi ENE 4.6 mph - N/A   Overcast
5:53 PM 53.1 °F - 43.0 °F 69% 29.94 in 10.0 mi ENE 9.2 mph - N/A   Overcast
6:53 PM 51.1 °F - 46.0 °F 83% 29.94 in 10.0 mi ENE 10.4 mph - N/A   Mostly Cloudy
7:53 PM 48.9 °F - 45.0 °F 86% 29.95 in 10.0 mi ENE 6.9 mph - 0.00 in Rain Light Rain
8:53 PM 48.9 °F - 46.0 °F 90% 29.96 in 10.0 mi NNE 3.5 mph - 0.00 in   Overcast
9:53 PM 48.9 °F - 45.0 °F 86% 29.96 in 10.0 mi North 5.8 mph - N/A   Overcast
10:53 PM 48.0 °F - 45.0 °F 89% 29.95 in 10.0 mi North 5.8 mph - N/A   Overcast
11:53 PM 48.0 °F - 45.0 °F 89% 29.91 in 10.0 mi ENE 5.8 mph - N/A   Mostly Cloudy